Change the Weather History Date:

Wednesday, January 29, 2014

  Actual Average (LHBP) Record (LHBP)
Temperature  
Mean Temperature 22 °F -  
Max Temperature 28 °F 36 °F 64 °F (2002)
Min Temperature 17 °F 22 °F 8 °F (2011)
Degree Days  
Heating Degree Days 42    
Moisture  
Dew Point 24 °F    
Average Humidity 90    
Maximum Humidity 100    
Minimum Humidity 80    
Precipitation  
Precipitation 0.04 in - - ()
Sea Level Pressure  
Sea Level Pressure 29.82 in    
Wind  
Wind Speed 6 mph ()    
Max Wind Speed 11 mph    
Max Gust Speed -    
Visibility 1.7 miles    
Events Fog , Snow    
Averages and records for this station are not official NWS values.
T = Trace of Precipitation, MM = Missing Value Source: Averaged Metar Reports

Daily Weather History Graph

Daily Weather History Graph

Search for Another Location

Airport or City:

Trip Planner

Search our weather history database for the weather conditions in past years. The results will help you decide how hot, cold, wet, or windy it might be!

Date:

Astronomy

Jan. 29, 2014 Rise Set
Actual Time 7:08 AM CET 4:36 PM CET
Civil Twilight 6:35 AM CET 5:09 PM CET
Nautical Twilight 5:58 AM CET 5:46 PM CET
Astronomical Twilight 5:22 AM CET 6:22 PM CET
Moon 5:30 AM CET (1/29) 3:13 PM CET (1/29)
Length of Visible Light 10h 34m
Length of Day
9h 28m
Waning Crescent, 3% of the Moon is Illuminated
Jan 29
Waning Crescent
Jan 30
New
Feb 6
First Quarter
Feb 15
Full
Feb 22
Last Quarter

Hourly Weather History & Observations

Time (CET) Temp. Windchill Dew Point Humidity Pressure Visibility Wind Dir Wind Speed Gust Speed Precip Events Conditions
12:00 AM 24 °F - 22 °F 90% 29.71 in 0 mi NE 6.7 mph - - Fog Fog
12:15 AM 23.0 °F 14.9 °F 23.0 °F 100% 29.68 in 0.5 mi NE 6.7 mph - N/A Fog Light Freezing Fog
12:45 AM 24.8 °F 17.1 °F 23.0 °F 93% 29.68 in 0.5 mi NE 6.7 mph - N/A Fog Light Freezing Fog
1:00 AM 21 °F - 20 °F 93% 30.08 in 1 mi SE 6.7 mph - -   Mist
1:15 AM 24.8 °F 17.1 °F 23.0 °F 93% 29.68 in 0.5 mi NE 6.7 mph - N/A Fog Light Freezing Fog
1:45 AM 24.8 °F 17.1 °F 23.0 °F 93% 29.68 in 0.9 mi NE 6.7 mph - N/A   Overcast
2:00 AM 25 °F - 23 °F 90% 29.72 in 1 mi NE 6.7 mph - - Fog Light Fog
2:15 AM 24.8 °F 17.1 °F 23.0 °F 93% 29.68 in 1.2 mi NE 6.7 mph - N/A   Overcast
2:45 AM 24.8 °F 17.1 °F 23.0 °F 93% 29.68 in 1.6 mi NE 6.7 mph - N/A   Overcast
3:00 AM 24 °F - 23 °F 94% 29.72 in 2 mi NE 6.7 mph - -   Mist
3:15 AM 24.8 °F 17.1 °F 23.0 °F 93% 29.68 in 1.6 mi NNE 6.7 mph - N/A   Overcast
3:45 AM 24.8 °F 17.1 °F 23.0 °F 93% 29.68 in 1.6 mi NNE 6.7 mph - N/A   Overcast
4:00 AM 25 °F - 23 °F 88% 29.72 in 2 mi NNE 6.7 mph - -   Mist
4:15 AM 24.8 °F 15.5 °F 23.0 °F 93% 29.68 in 1.9 mi NNE 8.9 mph - N/A   Overcast
4:45 AM 24.8 °F 15.5 °F 23.0 °F 93% 29.68 in 1.9 mi NNE 8.9 mph - N/A Snow Light Snow
5:00 AM 25 °F - 23 °F 88% 29.72 in 2 mi NNE 8.9 mph - - Snow Light Snow
5:15 AM 24.8 °F 15.5 °F 23.0 °F 93% 29.68 in 1.9 mi NNE 8.9 mph - N/A Snow Light Snow
5:45 AM - - - N/A% - 1.9 mi NE 8.9 mph - N/A   Overcast
6:00 AM 26 °F - 23 °F 84% 29.73 in 2 mi NE 8.9 mph - - Snow Light Snow
6:15 AM 24.8 °F 14.2 °F 23.0 °F 93% 29.71 in 1.9 mi NE 11.2 mph - N/A Snow Light Snow
6:27 AM 24.8 °F 15.5 °F 23.0 °F 93% 29.71 in 0.9 mi ENE 8.9 mph - N/A Snow Light Snow
6:45 AM 24.8 °F 17.1 °F 23.0 °F 93% 29.71 in 0.7 mi ENE 6.7 mph - N/A Snow Snow
7:00 AM 26 °F - 23 °F 84% 29.75 in 1 mi ENE 6.7 mph - - Snow Snow
7:15 AM 24.8 °F 17.1 °F 24.8 °F 100% 29.71 in 0.7 mi ENE 6.7 mph - N/A Snow Snow
7:45 AM 26.6 °F 19.2 °F 24.8 °F 93% 29.74 in 0.7 mi NE 6.7 mph - N/A Snow Light Snow
8:00 AM 26 °F - 24 °F 90% 29.76 in 1 mi NE 6.7 mph - - Snow Light Snow
8:15 AM 26.6 °F 19.2 °F 24.8 °F 93% 29.74 in 0.7 mi NE 6.7 mph - N/A Snow Light Snow
8:45 AM - - - N/A% - 0.9 mi NE 6.7 mph - N/A   Unknown
9:00 AM 26 °F - 24 °F 91% 29.78 in 1 mi NE 6.7 mph - - Snow Light Snow
9:00 AM 26.6 °F 19.2 °F 24.8 °F 93% 29.74 in 0.9 mi NE 6.7 mph - N/A Snow Light Snow
9:15 AM 26.6 °F 21.3 °F 24.8 °F 93% 29.77 in 0.7 mi NE 4.5 mph - N/A Snow Light Snow
9:45 AM 26.6 °F 19.2 °F 24.8 °F 93% 29.77 in 0.7 mi ENE 6.7 mph - N/A Snow Snow
10:00 AM 27 °F - 25 °F 87% 29.80 in 1 mi ENE 6.7 mph - - Snow Snow
10:15 AM 26.6 °F 19.2 °F 24.8 °F 93% 29.77 in 0.9 mi ENE 6.7 mph - N/A Snow Light Snow
10:45 AM 26.6 °F 21.3 °F 24.8 °F 93% 29.80 in 0.6 mi ENE 4.5 mph - N/A Snow Light Snow
11:00 AM 27 °F - 25 °F 89% 29.82 in 1 mi ENE 4.5 mph - - Snow Light Snow
11:15 AM 26.6 °F - 24.8 °F 93% 29.80 in 0.6 mi East 2.2 mph - N/A Snow Light Snow
11:45 AM - - - N/A% - 0.9 mi ESE 4.5 mph - N/A   Unknown
12:00 PM 27 °F - 25 °F 89% 29.83 in 1 mi East 4.5 mph - - Snow Light Snow
12:15 PM 26.6 °F 21.3 °F 24.8 °F 93% 29.80 in 0.9 mi SE 4.5 mph - N/A Snow Light Snow
12:45 PM 26.6 °F 19.2 °F 24.8 °F 93% 29.80 in 1.1 mi South 6.7 mph - N/A Snow Light Snow
1:00 PM 27 °F - 24 °F 86% 29.84 in 1 mi South 6.7 mph - - Snow Light Snow
1:15 PM 28.4 °F 21.4 °F 24.8 °F 86% 29.83 in 1.2 mi South 6.7 mph - N/A Snow Light Snow
1:27 PM 28.4 °F 21.4 °F 24.8 °F 86% 29.83 in 1.9 mi South 6.7 mph - N/A Snow Light Snow
1:45 PM 28.4 °F 23.4 °F 24.8 °F 86% 29.83 in 1.9 mi SSW 4.5 mph - N/A Snow Light Snow
2:00 PM 28 °F - 25 °F 82% 29.86 in 2 mi SSW 4.5 mph - - Snow Light Snow
2:15 PM 28.4 °F 21.4 °F 24.8 °F 86% 29.83 in 1.9 mi SSW 6.7 mph - N/A Snow Light Snow
2:45 PM - - - N/A% - 0.9 mi ESE 4.5 mph - N/A   Unknown
3:00 PM 28 °F - 25 °F 83% 29.87 in 2 mi SSW 6.7 mph - - Snow Light Snow
3:15 PM 28.4 °F 23.4 °F 24.8 °F 86% 29.86 in 1.9 mi SW 4.5 mph - N/A Snow Light Snow
3:45 PM 28.4 °F 23.4 °F 24.8 °F 86% 29.86 in 1.9 mi SSW 4.5 mph - N/A Snow Light Snow
4:00 PM 28 °F - 24 °F 80% 29.89 in 2 mi SSW 4.5 mph - - Snow Light Snow
4:15 PM 28.4 °F 23.4 °F 24.8 °F 86% 29.86 in 1.9 mi South 4.5 mph - N/A   Overcast
4:45 PM 28.4 °F 23.4 °F 24.8 °F 86% 29.89 in 1.9 mi SSE 4.5 mph - N/A   Overcast
5:00 PM 28 °F - 25 °F 83% 29.92 in 2 mi SSE 4.5 mph - - Snow Light Snow
5:15 PM 28.4 °F 23.4 °F 24.8 °F 86% 29.89 in 1.9 mi SE 4.5 mph - N/A   Overcast
5:45 PM - - - N/A% - 1.9 mi ESE 4.5 mph - N/A   Overcast
6:00 PM 27 °F - 24 °F 86% 29.94 in 2 mi SE 6.7 mph - -   Mist
6:15 PM 26.6 °F 19.2 °F 24.8 °F 93% 29.92 in 2.5 mi SE 6.7 mph - N/A   Overcast
6:45 PM 26.6 °F 21.3 °F 23.0 °F 86% 29.92 in 3.1 mi SSE 4.5 mph - N/A   Overcast
6:50 PM - - - N/A% - 3.1 mi SSE 4.5 mph - N/A Fog Light Freezing Fog
7:00 PM 27 °F - 24 °F 81% 29.96 in 3 mi SSE 4.5 mph - -   Mist
7:15 PM 26.6 °F 19.2 °F 23.0 °F 86% 29.95 in 3.1 mi SSE 6.7 mph - N/A   Overcast
7:45 PM 26.6 °F 21.3 °F 23.0 °F 86% 29.95 in 3.1 mi SE 4.5 mph - N/A   Overcast
8:00 PM 26 °F - 23 °F 84% 29.99 in 3 mi SE 4.5 mph - -   Mist
8:15 PM 24.8 °F 17.1 °F 23.0 °F 93% 29.95 in 3.1 mi SE 6.7 mph - N/A   Mostly Cloudy
8:45 PM - - - N/A% - 3.1 mi SSE 4.5 mph - N/A Fog Light Freezing Fog
9:00 PM 26 °F - 23 °F 83% 30.01 in 3 mi SE 4.5 mph - -   Mist
9:15 PM 24.8 °F 17.1 °F 23.0 °F 93% 29.98 in 3.1 mi SE 6.7 mph - N/A   Overcast
9:45 PM 24.8 °F 17.1 °F 23.0 °F 93% 30.01 in 3.1 mi SE 6.7 mph - N/A   Overcast
10:00 PM 25 °F - 22 °F 85% 30.03 in 3 mi SE 6.7 mph - -   Mist
10:15 PM 24.8 °F 19.2 °F 21.2 °F 86% 30.01 in 3.1 mi SSE 4.5 mph - N/A   Overcast
10:45 PM 24.8 °F 19.2 °F 23.0 °F 93% 30.04 in 3.1 mi SE 4.5 mph - N/A   Overcast
11:00 PM 24 °F - 22 °F 90% 30.06 in 3 mi SE 4.5 mph - -   Mist
11:15 PM 24.8 °F 19.2 °F 21.2 °F 86% 30.04 in 3.1 mi SSE 4.5 mph - N/A   Overcast
11:45 PM - - - N/A% - 1.2 mi North - - N/A Fog Light Freezing Fog